Location: Malvern Link
(52.1333°N, 2.3000°W)
Time: 05:54:31
(UTC+00:00)

ATLAS 3B R/B - Pass Details

Date: 18 September 2020
Orbit: 1016 x 1179 km, 63.8° (Epoch: 04 October)

Event Time Altitude Azimuth Distance (km) Brightness Sun altitude
Rises 23:10:25 0° 312° (NW) 3,844 6.3 -35.3°
Reaches altitude 10° 23:13:25 10° 301° (WNW) 2,910 5.4 -35.5°
Enters shadow 23:17:17 25° 269° (W) 2,061 4.2 -35.6°
